Flag for U.S.A. Weather past 2 weeks in Raleigh, North Carolina, U.S.A.

Now
26 °F

Clear.


Feels Like: 26 °F
Forecast: 28 / 51 °F
Wind: No wind

Location: Raleigh-Durham International Airport

Current Time: Mar 29, 2015 at 6:49:37 AM

Latest Report: Mar 29, 2015 at 5:51 AM


Visibility: 10 mi

Pressure: 30.36 "Hg

Humidity: 57%

Dew point: 13 °F

Location of RaleighLocation

Historic Weather in Raleigh — Graph

°F

Raleigh temperature yesterday

Maximum temperature yesterday: 46 °F (at 5:51 PM)
Minimum temperature yesterday: 33 °F (at 11:51 PM)
Average temperature yesterday: 40 °F

Past Weeks' High & Low Weather Summary

 TemperatureHumidityPressure
High81 °F (Mar 17, 2:51 PM)100% (Mar 14, 7:51 AM)30.34 "Hg (Mar 14, 7:51 AM)
Low28 °F (Mar 29, 3:51 AM)14% (Mar 16, 4:51 PM)29.63 "Hg (Mar 27, 4:51 AM)
Average53 °F62%30.06 "Hg
* Reported Mar 14 4:51 AM — Mar 29 4:51 AM, Raleigh, Weather by CustomWeather, © 2015

Note: Actual official high and low records may vary slightly from our data, if they occured in-between our weather recording intervals... More about our weather records

Advertising

Raleigh weather history for previous 24 hours

 ConditionsComfort  
Time TempWeatherWind HumidityBarometerVisibility
4:51 AM
Sun, Mar 29
28 °FClear.No wind51%30.34 "Hg10 mi
3:51 AM28 °FClear.No wind51%30.32 "Hg10 mi
2:51 AM29 °FClear.No wind47%30.32 "Hg10 mi
1:51 AM30 °FClear.No wind45%30.31 "Hg10 mi
12:51 AM32 °FClear.6 mph38%30.29 "Hg10 mi
11:51 PM
Sat, Mar 28
33 °FClear.7 mph38%30.28 "Hg10 mi
10:51 PM34 °FClear.No wind37%30.25 "Hg10 mi
9:51 PM36 °FClear.5 mph34%30.23 "Hg10 mi
8:51 PM38 °FClear.5 mph34%30.19 "Hg10 mi
7:51 PM40 °FSunny.6 mph28%30.15 "Hg10 mi
6:51 PM44 °FPassing clouds.7 mph23%30.10 "Hg10 mi
5:51 PM46 °FPassing clouds.7 mph24%30.07 "Hg10 mi
4:51 PM45 °FPassing clouds.12 mph26%30.05 "Hg10 mi
3:51 PM45 °FPassing clouds.6 mph27%30.05 "Hg10 mi
2:51 PM44 °FPassing clouds.7 mph28%30.05 "Hg10 mi
1:51 PM42 °FPassing clouds.8 mph33%30.06 "Hg10 mi
12:51 PM40 °FPassing clouds.12 mph36%30.06 "Hg10 mi
11:51 AM40 °FScattered clouds.12 mph40%30.06 "Hg10 mi
10:51 AM39 °FPassing clouds.13 mph41%30.05 "Hg10 mi
9:51 AM38 °FScattered clouds.8 mph46%30.04 "Hg10 mi
8:51 AM38 °FPassing clouds.8 mph53%30.01 "Hg10 mi
7:51 AM37 °FPassing clouds.6 mph67%29.98 "Hg10 mi
6:51 AM36 °FPassing clouds.No wind70%29.95 "Hg10 mi
Weather by CustomWeather, © 2015

See weather overviewHow to use our weather pages